User: anonymous
Location: Caltech
(34.1382°N, 118.1253°W)
Time: 10:40:40
(UTC-07:00)
Language:

Cosmos 2322 - Orbit

View from above orbital plane
View from above orbital plane
View from above satellite
View from above satellite

Ground track
Ground track

The orbit data is extracted from the following two-line orbital elements,

1 23704U 95058A   14233.91294834 -.00000184  00000-0 -72459-4 0   881
2 23704 070.9852 043.0442 0011204 223.3537 241.7438 14.13252531970270
Epoch (UTC): 21 August 2014 21:54:38
Eccentricity: 0.0011204
inclination: 70.9852°
perigee height: 840 km
apogee height: 856 km
right ascension of ascending node: 43.0442°
argument of perigee: 223.3537°
revolutions per day: 14.13252531
mean anomaly at epoch: 241.7438°
orbit number at epoch: 97027

The dashed part of the orbit path shows where the satellite is in the earth's shadow,  

DLR